Weather History for Laramie, WY

Change the Weather History Date:

Monday, November 25, 2013

  Actual Average Record
Temperature  
Mean Temperature 24 °F 25 °F  
Max Temperature 36 °F 36 °F 61 °F (1990)
Min Temperature 11 °F 14 °F -26 °F (1993)
Degree Days  
Heating Degree Days 41 40  
Month to date heating degree days 828 864  
Since 1 July heating degree days 1969 2107  
Cooling Degree Days 0 0  
Month to date cooling degree days 0 0  
Year to date cooling degree days 162 67  
Moisture  
Dew Point 16 °F    
Average Humidity 76    
Maximum Humidity 100    
Minimum Humidity 52    
Precipitation  
Precipitation 0.00 in 0.02 in 0.77 in (1983)
Month to date precipitation 0.20 0.47  
Year to date precipitation 11.66 10.53  
Sea Level Pressure  
Sea Level Pressure 30.23 in    
Wind  
Wind Speed 4 mph (WNW)    
Max Wind Speed 15 mph    
Max Gust Speed 18 mph    
Visibility 8 miles    
Events      
T = Trace of Precipitation, MM = Missing Value Source: NWS Daily Summary

Daily Weather History Graph

Daily Weather History Graph

Search for Another Location

Airport:

Trip Planner

Search our weather history database for the weather conditions in past years. The results will help you decide how hot, cold, wet, or windy it might be!

Date:

Astronomy

Nov. 25, 2013 Rise Set
Actual Time 7:02 AM MST 4:36 PM MST
Civil Twilight 6:32 AM MST 5:06 PM MST
Nautical Twilight 5:58 AM MST 5:40 PM MST
Astronomical Twilight 5:25 AM MST 6:13 PM MST
Moon No Moon Rise 12:18 PM MST (11/25)
Length of Visible Light 10h 34m
Length of Day
9h 33m
Waning Gibbous, 50% of the Moon is Illuminated
Nov 25
Waning Gibbous
Nov 25
Last Quarter
Dec 2
New
Dec 9
First Quarter
Dec 17
Full

Hourly Weather History & Observations

Time (MST) Temp. Windchill Dew Point Humidity Pressure Visibility Wind Dir Wind Speed Gust Speed Precip Events Conditions
12:05 AM 12.2 °F 6.1 °F 10.4 °F 92% 30.09 in 3.0 mi West 3.5 mph - N/A   Clear
12:13 AM 12.2 °F 4.3 °F 8.6 °F 85% 30.09 in 1.5 mi WSW 4.6 mph - N/A   Clear
12:27 AM 12.2 °F 4.3 °F 10.4 °F 92% 30.09 in 3.0 mi West 4.6 mph - N/A   Clear
12:40 AM 10.4 °F 0.8 °F 8.6 °F 92% 30.09 in 2.5 mi West 5.8 mph - N/A   Partly Cloudy
12:53 AM 10.9 °F 1.4 °F 10.0 °F 96% 30.20 in 0.8 mi SW 5.8 mph - N/A   Mist
1:00 AM 12.2 °F 2.9 °F 8.6 °F 85% 30.09 in 1.2 mi West 5.8 mph - N/A   Partly Cloudy
1:15 AM 10.4 °F 2.2 °F 8.6 °F 92% 30.09 in 2.0 mi West 4.6 mph - N/A   Scattered Clouds
1:34 AM 14.0 °F 6.5 °F 12.2 °F 93% 30.10 in 7.0 mi WSW 4.6 mph - N/A   Mostly Cloudy
1:53 AM 14.0 °F 8.2 °F 12.0 °F 92% 30.20 in 9.0 mi WSW 3.5 mph - N/A   Mostly Cloudy
2:13 AM 15.8 °F - 12.2 °F 86% 30.11 in 9.0 mi Calm Calm - N/A   Mostly Cloudy
2:19 AM 15.8 °F - 12.2 °F 86% 30.11 in 1.8 mi Calm Calm - N/A   Mostly Cloudy
2:36 AM 15.8 °F 10.2 °F 14.0 °F 93% 30.11 in 3.0 mi West 3.5 mph - N/A   Mostly Cloudy
2:53 AM 18.0 °F 11.1 °F 15.1 °F 88% 30.16 in 9.0 mi South 4.6 mph - N/A   Overcast
3:53 AM 19.9 °F - 18.0 °F 92% 30.19 in 9.0 mi Calm Calm - N/A   Overcast
4:53 AM 21.0 °F - 18.0 °F 88% 30.22 in 10.0 mi Calm Calm - N/A   Overcast
5:53 AM 21.0 °F - 19.0 °F 92% 30.25 in 10.0 mi Calm Calm - N/A   Overcast
6:53 AM 23.0 °F - 19.0 °F 85% 30.27 in 10.0 mi Calm Calm - N/A   Overcast
7:53 AM 24.1 °F 19.7 °F 19.0 °F 81% 30.29 in 10.0 mi SSE 3.5 mph - N/A   Overcast
8:53 AM 27.0 °F - 21.0 °F 78% 30.35 in 10.0 mi Calm Calm - N/A   Overcast
9:53 AM 28.9 °F - 21.9 °F 75% 30.35 in 10.0 mi Calm Calm - N/A   Overcast
10:53 AM 33.1 °F 30.0 °F 21.0 °F 61% 30.31 in 10.0 mi Variable 3.5 mph - N/A   Mostly Cloudy
11:53 AM 34.0 °F 26.6 °F 19.9 °F 56% 30.30 in 10.0 mi North 9.2 mph - N/A   Overcast
12:53 PM 36.0 °F 28.5 °F 19.9 °F 52% 30.30 in 10.0 mi North 10.4 mph - N/A   Overcast
1:53 PM 35.1 °F 27.4 °F 19.9 °F 54% 30.28 in 10.0 mi North 10.4 mph - N/A   Overcast
2:53 PM 34.0 °F 26.6 °F 21.0 °F 59% 30.27 in 10.0 mi North 9.2 mph - N/A   Mostly Cloudy
3:53 PM 33.1 °F 24.4 °F 19.9 °F 59% 30.28 in 10.0 mi North 11.5 mph - N/A   Overcast
4:53 PM 30.9 °F 25.2 °F 21.0 °F 67% 30.30 in 10.0 mi NNE 5.8 mph - N/A   Overcast
5:53 PM 30.0 °F 21.7 °F 19.9 °F 66% 30.31 in 10.0 mi North 9.2 mph - N/A   Overcast
6:53 PM 28.0 °F 21.7 °F 19.9 °F 72% 30.33 in 10.0 mi North 5.8 mph - N/A   Mostly Cloudy
7:53 PM 27.0 °F 23.0 °F 18.0 °F 69% 30.33 in 10.0 mi NNE 3.5 mph - N/A   Overcast
8:53 PM 25.0 °F 19.3 °F 18.0 °F 75% 30.34 in 10.0 mi NE 4.6 mph - N/A   Mostly Cloudy
9:53 PM 21.0 °F - 16.0 °F 81% 30.36 in 10.0 mi Calm Calm - N/A   Clear
10:53 PM 19.0 °F - 14.0 °F 81% 30.36 in 10.0 mi Calm Calm - N/A   Mostly Cloudy
11:53 PM 19.0 °F - 14.0 °F 81% 30.35 in 10.0 mi Calm Calm - N/A   Clear